Location: Achicourt
(50.2743°N, 2.7578°E)
Time: 08:36:41
(UTC+00:00)

Daily predictions for brighter satellites

Satellite Brightness Start Highest point End
(mag) Time Altitude Azimuth Time Altitude Azimuth Time Altitude Azimuth
Cosmos 2297 Rocket 3.1 17:03:32 10° NNW 17:08:29 29° NE 17:13:24 10° ESE
Cosmos 2369 Rocket 2.9 17:03:32 10° SW 17:09:08 58° NW 17:14:48 10° NNE
Cosmos 1939 Rocket 3.5 17:07:44 10° SE 17:11:18 32° ENE 17:14:50 10° N
COSMO-SKYMED 1 3.6 17:09:33 10° NE 17:13:09 25° E 17:16:44 10° SSE
NOAA 12 4.2 17:09:09 10° SSE 17:14:27 88° WSW 17:19:49 10° NNW
Cosmos 304 Rocket 3.8 17:10:41 10° SSW 17:15:28 88° WNW 17:20:18 10° NNE
FALCON 9 DEB 3.2 17:12:23 10° WSW 17:15:48 71° NNW 17:19:14 10° ENE
Cosmos 1689 Rocket 3.6 17:14:02 10° NE 17:16:00 17° E 17:17:57 10° SE
Cosmos 1452 Rocket 3.5 17:11:29 10° SSW 17:16:43 71° ESE 17:22:00 10° NNE
Okean O Rocket 1.9 17:13:44 10° S 17:18:05 74° WSW 17:22:29 10° NNW
Aureole 3 Rocket 4.5 17:16:30 10° ESE 17:19:16 18° ENE 17:22:36 10° NE
Cosmos 2279 Rocket 4.5 17:13:41 10° SSW 17:19:54 68° WNW 17:26:09 10° N
Cosmos 1328 3.7 17:16:55 10° N 17:20:52 75° ENE 17:24:48 10° SSE
H-2A R/B 2.5 17:16:41 10° N 17:20:52 63° WNW 17:24:56 10° SSW
H-2A R/B 3.3 17:17:13 10° ESE 17:21:22 23° ENE 17:25:33 10° N
Cosmos 2098 Rocket 3.6 17:19:38 10° NNW 17:22:49 43° W 17:25:38 10° SSW
ADEOS Rocket 3.5 17:18:43 10° NNE 17:24:54 76° WNW 17:31:46 10° SSW
Cosmos 1340 3.9 17:22:15 10° NNE 17:25:12 21° ENE 17:28:07 10° ESE
NOSS 2-1 (E) 3.7 17:22:51 10° WSW 17:26:07 51° NW 17:29:52 10° NE
IRS-1C Rocket 4.2 17:21:12 10° SE 17:26:19 55° ENE 17:31:29 10° N
Cosmos 1825 Rocket 3.6 17:22:44 10° N 17:27:10 60° ENE 17:31:33 10° SSE
Cosmos 1356 Rocket 3.6 17:22:56 10° SSW 17:27:12 82° WNW 17:31:32 10° N
CORIOLIS 4.4 17:22:18 10° S 17:27:39 76° WSW 17:33:02 10° NNW
ERS-2 2.0 17:24:29 10° NNE 17:28:08 73° ESE 17:31:46 10° S
CZ-4 R/B 2.2 17:25:40 10° SE 17:29:01 28° ENE 17:32:23 10° N
BREEZE-M DEB (TANK) 4.0 17:27:05 10° WSW 17:30:34 90° NW 17:42:44 11° ENE
YAOGAN 1 3.4 17:29:05 10° SE 17:32:52 30° ENE 17:36:38 10° N
USA 281 4.1 17:27:23 10° S 17:33:47 54° WSW 17:40:14 10° NNW
Lacrosse 5 2.4 17:29:04 10° W 17:34:02 53° NNW 17:38:57 10° ENE
Cosmos 2219 3.6 17:28:40 10° NNW 17:34:09 43° NE 17:39:37 10° ESE
Meteor 2-21 Rocket 4.5 17:28:36 10° N 17:34:47 65° ENE 17:40:53 10° SSE
ERBS 3.3 17:31:52 10° W 17:35:02 39° NNW 17:38:04 11° NE
CZ-4B R/B 1.2 17:36:13 10° NNE 17:39:31 89° ENE 17:42:42 10° SSW
SAR-Lupe-4 3.6 17:36:26 10° NNE 17:39:58 54° E 17:43:30 10° S
Cosmos 1400 Rocket 3.8 17:39:39 10° SSE 17:43:05 26° E 17:46:30 10° NE
USA 305 3.3 17:39:27 10° WNW 17:43:40 51° N 17:46:51 17° ENE
Cosmos 1758 Rocket 3.8 17:40:02 10° NNW 17:44:28 73° W 17:48:49 10° S
Cosmos 44 4.1 17:40:38 10° S 17:44:29 28° ESE 17:47:38 14° ENE
Cosmos 1726 Rocket 3.7 17:41:53 10° SSE 17:46:03 47° E 17:50:16 10° NNE
Okean-O 2.8 17:41:49 10° SE 17:46:05 49° ENE 17:50:23 10° N
CZ-4C R/B 3.9 17:41:26 10° NW 17:46:30 26° N 17:52:05 11° ENE
NOSS 2-2 (E) 4.4 17:43:55 10° NW 17:49:15 74° NE 17:56:44 10° SE
USA 306 3.3 17:45:42 10° WNW 17:49:55 52° N 17:52:49 19° ENE
Cosmos 1818 4.2 17:49:24 10° WSW 17:54:45 55° NW 18:00:08 10° NE
Cosmos 1943 Rocket 4.2 17:50:28 10° W 17:54:52 23° NW 17:59:15 10° NNE
SAR-Lupe-1 3.9 17:54:05 10° NNE 17:57:42 81° ESE 18:01:18 10° SSW
Aureole 3 3.3 17:55:50 10° SSE 17:58:48 33° E 18:00:42 17° NE
Cosmos 1331 Rocket 3.9 17:55:14 10° S 18:00:20 67° ESE 18:05:28 10° NNE
Cosmos 1606 Rocket 3.5 17:56:02 10° S 18:00:24 82° E 18:04:50 10° NNE
SKYMED 2 3.5 17:57:08 10° NNE 18:01:29 71° ESE 18:05:49 10° S
Cosmos 2228 3.0 18:00:27 10° S 18:04:42 85° W 18:09:00 10° N
GENESIS II 4.5 18:00:53 10° SSW 18:04:46 49° SE 18:07:02 23° ENE
ATLAS 5 CENTAUR R/B 3.3 18:01:07 10° W 18:04:54 28° NNW 18:09:11 10° NE
Cosmos 1244 Rocket 4.4 17:59:09 10° N 18:05:22 76° ENE 18:11:36 10° SSE
NOSS 2-2 (D) 4.4 18:00:51 10° NW 18:06:08 79° NE 18:13:31 10° SE
SL-4 R/B 1.7 18:02:39 10° W 18:06:12 74° N 18:08:01 28° ENE
CZ-2C R/B 3.3 18:03:10 10° SSE 18:08:54 65° ENE 18:14:31 10° N
Cosmos 292 Rocket 3.8 18:04:47 10° S 18:09:29 60° ESE 18:14:16 10° NNE
Cosmos 1346 Rocket 3.4 18:08:16 10° N 18:11:56 33° ENE 18:12:50 30° E
Cosmos 2227 Rocket 2.2 18:06:56 10° NNW 18:12:33 59° NE 18:17:08 15° SE
ARGOS 3.5 18:09:09 12° SE 18:13:46 41° ENE 18:18:51 10° N
Meteor 2-10 Rocket 4.1 18:11:41 10° SSE 18:16:26 34° E 18:21:03 10° NNE
Cosmos 1892 2.9 18:12:56 10° N 18:16:44 49° ENE 18:19:18 19° SE
SeaSat 1 2.5 18:14:54 20° SE 18:18:14 56° NE 18:23:05 10° NNW
CZ-2D R/B 3.7 18:16:45 10° S 18:20:32 64° WSW 18:24:20 10° NNW
USA 215 3.4 18:17:28 24° E 18:21:35 62° NNE 18:28:01 10° WNW
Cosmos 2263 Rocket 3.6 18:19:04 10° N 18:23:12 20° NE 18:24:13 19° NE
Cosmos 1656 4.1 18:18:08 10° S 18:23:15 39° ESE 18:26:21 22° NE
Cosmos 968 Rocket 3.5 18:18:22 10° NNW 18:23:35 60° ENE 18:26:57 21° SE
ATLAS 2AS CENTAUR R/B 3.7 18:17:11 10° NW 18:24:15 36° NNE 18:27:53 23° ENE
Cosmos 1110 Rocket 4.2 18:20:48 10° SSW 18:26:03 73° WNW 18:31:18 10° NNE
Cosmos 1953 Rocket 4.4 18:21:58 10° NNW 18:26:15 53° W 18:30:34 10° S
CSL-04 Rocket 3.6 18:21:07 10° SSE 18:26:37 68° ENE 18:32:07 10° N
Cosmos 2058 Rocket 3.0 18:22:32 10° S 18:27:00 79° E 18:31:32 10° NNE
Cosmos 1302 Rocket 4.0 18:23:41 10° S 18:28:51 62° ESE 18:34:05 10° NNE
FALCON 9 DEB 4.4 18:27:09 10° SSW 18:29:11 25° S 18:29:11 25° S
Cosmos 1486 Rocket 4.0 18:24:43 10° NNW 18:30:04 69° ENE 18:33:47 20° SE
HJ-1C 3.4 18:30:28 57° ENE 18:30:28 57° ENE 18:33:45 10° N
Cosmos 1300 3.4 18:27:39 10° SSW 18:31:24 56° WNW 18:35:11 10° N
USA 307 3.0 18:27:29 10° WNW 18:31:46 62° NNE 18:32:53 44° ENE
Cosmos 1697 Rocket 4.0 18:30:28 10° SSE 18:32:53 21° SE 18:32:53 21° SE
USA 308 3.0 18:32:16 10° WNW 18:36:31 63° NNE 18:37:27 49° ENE
Helios 1A Rocket 4.1 18:34:25 10° S 18:38:21 44° W 18:42:19 10° NNW
Cosmos 1503 Rocket 4.2 18:34:09 10° NNW 18:39:13 50° ENE 18:40:30 41° ESE
GEOS 3 Rocket 4.0 18:36:45 14° SSE 18:41:17 64° SW 18:46:40 10° NW
DMSP B5D1-3 4.4 18:37:04 10° NNE 18:42:12 67° ESE 18:47:20 10° S
CRYOSAT 2 4.2 18:38:53 10° N 18:43:44 65° E 18:48:33 10° S
S3M 3.9 18:38:16 10° S 18:44:15 61° E 18:50:19 10° NNE
Cosmos 1825 3.5 18:42:32 10° N 18:44:30 26° NNE 18:44:30 26° NNE
Cosmos 1689 Rocket 4.3 18:44:42 10° N 18:47:12 26° WNW 18:49:41 10° SW
Cosmos 1354 Rocket 4.1 18:43:43 10° NNW 18:48:53 53° ENE 18:49:38 49° E
COSMO-SKYMED 1 3.9 18:45:22 10° N 18:49:28 41° WNW 18:53:32 10° SW
Cosmos 1408 2.9 18:47:38 10° N 18:50:33 55° N 18:50:33 55° N
Cosmos 2297 Rocket 2.5 18:47:22 10° NW 18:52:59 65° WSW 18:57:46 14° SSE
FALCON 9 DEB 3.8 18:49:42 10° WNW 18:52:39 48° NNW 18:52:39 48° NNW
Cosmos 1417 Rocket 4.4 18:50:21 10° S 18:56:36 89° E 19:02:59 10° N
Cosmos 2058 2.8 18:53:04 10° NNW 18:57:11 83° W 18:57:58 57° S
MOS 1 Rocket 3.1 18:53:15 10° NNE 18:57:50 85° ESE 19:02:40 10° SSW
H-2A R/B 2.4 18:54:54 10° S 19:00:17 71° WSW 19:05:46 10° NNW
Cosmos 1340 4.2 18:57:26 10° NNW 19:00:55 36° W 19:04:24 10° SSW
SL-08 RB Rocket 3.6 19:03:12 67° NE 19:03:12 67° NE 19:07:20 10° N
CZ-4 R/B 3.3 19:00:35 10° SSW 19:04:02 29° W 19:07:27 10° NW
Aureole 3 Rocket 4.2 19:02:19 10° SW 19:06:02 45° WNW 19:11:05 10° N
Timation 1 Rocket 4.3 19:01:40 10° NNW 19:07:39 61° NE 19:08:21 57° E
YAOGAN 1 4.2 19:04:57 10° SSW 19:08:53 34° W 19:12:53 10° NNW
Cosmos 1076 Rocket 3.6 19:07:12 10° NNW 19:10:59 68° NNW 19:10:59 68° NNW
ERBS 4.5 19:09:04 10° WNW 19:10:58 22° NNW 19:10:58 22° NNW
Cosmos 1553 Rocket 4.4 19:09:21 10° SSW 19:15:39 63° WNW 19:21:55 10° N
Lacrosse 5 2.7 19:13:01 10° WNW 19:17:46 39° N 19:18:09 38° NNE
Ariane Rocket 3.1 19:18:51 64° NNE 19:18:51 64° NNE 19:23:23 10° NNW
Cosmos 2219 4.4 19:12:58 10° NW 19:18:20 41° WSW 19:23:22 11° S
Geosat 4.4 19:17:12 23° NNE 19:20:16 62° NW 19:25:14 10° SW
BREEZE-M R/B 4.0 19:17:15 10° W 19:21:49 79° S 19:23:14 59° ESE
MetOp-A 4.2 19:24:28 65° NNE 19:24:28 65° NNE 19:29:13 10° NNW
USA 305 3.6 19:19:37 10° WNW 19:23:00 54° WNW 19:23:00 54° WNW
Cosmos 44 3.8 19:20:58 10° WSW 19:25:26 52° NW 19:26:06 48° NNW
Cosmos 2082 3.8 19:23:41 10° NNW 19:29:25 72° WSW 19:30:18 61° S
USA 306 3.9 19:25:52 10° WNW 19:28:58 46° WNW 19:28:58 46° WNW
CZ-4C R/B 3.4 19:30:36 10° NW 19:36:50 40° NNE 19:37:16 39° NE
SL-4 R/B 4.2 19:42:13 10° WNW 19:43:36 22° WNW 19:43:36 22° WNW
ATLAS 5 CENTAUR R/B 3.9 19:47:43 10° NW 19:51:05 19° N 19:51:05 19° N
NOSS 3-4 (A) 3.7 19:47:05 10° NW 19:53:45 75° NNE 19:53:45 75° NNE
NOSS 3-4 (C) 3.7 19:47:11 10° NW 19:53:51 74° NNE 19:53:51 74° NNE
SeaSat 1 4.2 19:54:43 24° SW 19:56:01 27° WSW 20:00:14 10° NW
Cosmos 2227 Rocket 4.0 19:51:33 10° NW 19:56:15 28° WSW 19:59:01 19° SW
CZ-2C R/B 4.4 19:51:45 10° NNE 19:53:40 22° N 19:53:40 22° N
USA 215 3.4 20:04:50 66° SW 20:04:50 66° SW 20:11:08 10° WNW
Cosmos 2263 Rocket 3.3 20:02:26 10° NNW 20:05:55 38° NNW 20:05:55 38° NNW
ATLAS 2AS CENTAUR R/B 3.0 20:08:41 10° NW 20:15:19 68° NNW 20:15:19 68° NNW
CZ-4C R/B 4.2 21:19:03 10° NW 21:22:26 33° NW 21:22:26 33° NW
